Time,TemperatureF,DewpointF,PressureIn,WindDirection,WindDirectionDegrees,WindSpeedMPH,WindSpeedGustMPH,Humidity,HourlyPrecipIn,Conditions,Clouds,dailyrainin,SolarRadiationWatts/m^2,SoftwareType,DateUTC
2013-02-25 00:02:00,43.2,42.6,29.91,East,90,8.1,8.1,98,0.00,CLR,,0.37,0.0,WeatherDisplay:10.37,2013-02-24 23:02:00,
2013-02-25 00:07:00,43.2,42.6,29.91,ESE,112,9.2,9.2,98,0.00,CLR,,0.37,0.0,WeatherDisplay:10.37,2013-02-24 23:07:00,
2013-02-25 00:12:00,43.2,42.6,29.91,ESE,112,8.5,8.5,98,0.00,CLR,,0.37,0.0,WeatherDisplay:10.37,2013-02-24 23:12:00,
2013-02-25 00:17:00,43.2,42.6,29.91,ESE,112,13.0,13.0,98,0.00,CLR,,0.37,0.0,WeatherDisplay:10.37,2013-02-24 23:17:00,
2013-02-25 00:22:00,43.3,42.8,29.91,ESE,112,9.0,9.0,98,0.00,CLR,,0.37,0.0,WeatherDisplay:10.37,2013-02-24 23:22:00,
2013-02-25 00:27:00,43.3,42.8,29.91,East,90,10.4,10.4,98,0.00,CLR,,0.37,0.0,WeatherDisplay:10.37,2013-02-24 23:27:00,
2013-02-25 00:32:00,43.3,42.8,29.91,ESE,112,12.8,12.8,98,0.00,CLR,,0.37,0.0,WeatherDisplay:10.37,2013-02-24 23:32:00,
2013-02-25 00:37:00,43.3,42.8,29.91,East,90,9.2,9.2,98,0.00,CLR,,0.37,0.0,WeatherDisplay:10.37,2013-02-24 23:37:00,
2013-02-25 00:42:00,43.3,42.8,29.91,ENE,68,12.7,12.7,98,0.00,CLR,,0.37,0.0,WeatherDisplay:10.37,2013-02-24 23:42:00,
2013-02-25 00:47:00,43.3,42.8,29.91,ESE,112,11.5,11.5,98,0.00,CLR,,0.37,0.0,WeatherDisplay:10.37,2013-02-24 23:47:00,
2013-02-25 00:52:00,43.3,42.8,29.91,SSE,158,5.8,5.8,98,0.00,CLR,,0.37,0.0,WeatherDisplay:10.37,2013-02-24 23:52:00,
2013-02-25 00:57:00,43.3,42.8,29.91,ESE,112,8.1,8.1,98,0.00,CLR,,0.37,0.0,WeatherDisplay:10.37,2013-02-24 23:57:00,
2013-02-25 01:02:00,43.3,42.8,29.91,ESE,112,11.5,11.5,98,0.00,CLR,,0.37,0.0,WeatherDisplay:10.37,2013-02-25 00:02:00,
2013-02-25 01:07:00,43.3,42.8,29.94,East,90,11.5,11.5,98,0.00,CLR,,0.37,0.0,WeatherDisplay:10.37,2013-02-25 00:07:00,
2013-02-25 01:12:00,43.3,42.8,29.94,SSE,158,8.5,9.0,98,0.00,CLR,,0.37,0.0,WeatherDisplay:10.37,2013-02-25 00:12:00,
2013-02-25 01:17:00,43.3,42.8,29.94,NE,45,12.7,12.7,98,0.00,CLR,,0.37,0.0,WeatherDisplay:10.37,2013-02-25 00:17:00,
2013-02-25 01:22:00,43.3,42.8,29.94,East,90,4.6,4.6,98,0.00,CLR,,0.37,0.0,WeatherDisplay:10.37,2013-02-25 00:22:00,
2013-02-25 01:27:00,43.3,42.8,29.94,East,90,8.7,8.7,98,0.00,CLR,,0.37,0.0,WeatherDisplay:10.37,2013-02-25 00:27:00,
2013-02-25 01:32:00,43.2,42.6,29.94,ESE,112,8.1,8.1,98,0.00,CLR,,0.37,0.0,WeatherDisplay:10.37,2013-02-25 00:32:00,
2013-02-25 01:37:00,43.2,42.6,29.94,ESE,112,6.9,6.9,98,0.00,CLR,,0.37,0.0,WeatherDisplay:10.37,2013-02-25 00:37:00,
2013-02-25 01:42:00,43.2,42.6,29.94,SSW,202,4.6,4.6,98,0.00,CLR,,0.37,0.0,WeatherDisplay:10.37,2013-02-25 00:42:00,
2013-02-25 01:47:00,43.0,42.5,29.94,WSW,248,3.5,4.0,98,0.00,CLR,,0.37,0.0,WeatherDisplay:10.37,2013-02-25 00:47:00,
2013-02-25 01:52:00,43.0,42.5,29.94,SW,225,8.1,8.1,98,0.00,CLR,,0.37,0.0,WeatherDisplay:10.37,2013-02-25 00:52:00,
2013-02-25 01:57:00,43.0,42.5,29.94,NNW,338,2.3,2.3,98,0.00,CLR,,0.37,0.0,WeatherDisplay:10.37,2013-02-25 00:57:00,
2013-02-25 02:02:00,43.0,42.5,29.94,WNW,292,5.8,5.8,98,0.00,CLR,,0.37,0.0,WeatherDisplay:10.37,2013-02-25 01:02:00,
2013-02-25 02:07:00,43.0,42.5,29.94,East,90,5.8,6.4,98,0.00,CLR,,0.37,0.0,WeatherDisplay:10.37,2013-02-25 01:07:00,
2013-02-25 02:12:00,43.0,42.5,29.94,ESE,112,4.0,6.0,98,0.00,CLR,,0.37,0.0,WeatherDisplay:10.37,2013-02-25 01:12:00,
2013-02-25 02:17:00,43.0,42.5,29.94,ESE,112,8.5,8.5,98,0.00,CLR,,0.37,0.0,WeatherDisplay:10.37,2013-02-25 01:17:00,
2013-02-25 02:22:00,43.0,42.5,29.94,ESE,112,9.8,9.8,98,0.00,CLR,,0.37,0.0,WeatherDisplay:10.37,2013-02-25 01:22:00,
2013-02-25 02:27:00,43.0,42.5,29.94,ESE,112,4.6,4.6,98,0.00,CLR,,0.37,0.0,WeatherDisplay:10.37,2013-02-25 01:27:00,
2013-02-25 02:32:00,43.0,42.5,29.94,ESE,112,6.4,6.4,98,0.00,CLR,,0.37,0.0,WeatherDisplay:10.37,2013-02-25 01:32:00,
2013-02-25 02:37:00,43.0,42.5,29.94,ENE,68,8.1,8.1,98,0.00,CLR,,0.37,0.0,WeatherDisplay:10.37,2013-02-25 01:37:00,
2013-02-25 02:42:00,43.0,42.5,29.94,SSE,158,10.4,10.4,98,0.00,CLR,,0.37,0.0,WeatherDisplay:10.37,2013-02-25 01:42:00,
2013-02-25 02:47:00,43.0,42.5,29.94,WSW,248,5.8,5.8,98,0.00,CLR,,0.37,0.0,WeatherDisplay:10.37,2013-02-25 01:47:00,
2013-02-25 02:52:00,43.0,42.5,29.97,SSW,202,6.9,6.9,98,0.00,CLR,,0.37,0.0,WeatherDisplay:10.37,2013-02-25 01:52:00,
2013-02-25 02:57:00,43.0,42.5,29.97,SW,225,7.4,7.4,98,0.00,CLR,,0.37,0.0,WeatherDisplay:10.37,2013-02-25 01:57:00,
2013-02-25 03:02:00,43.0,42.5,29.97,ESE,112,5.8,5.8,98,0.00,CLR,,0.37,0.0,WeatherDisplay:10.37,2013-02-25 02:02:00,
2013-02-25 03:07:00,43.0,42.5,29.97,ESE,112,8.1,8.1,98,0.00,CLR,,0.37,0.0,WeatherDisplay:10.37,2013-02-25 02:07:00,
2013-02-25 03:12:00,43.0,42.5,29.97,ESE,112,4.9,4.9,98,0.00,CLR,,0.37,0.0,WeatherDisplay:10.37,2013-02-25 02:12:00,
2013-02-25 03:17:00,43.0,42.2,29.97,ESE,112,5.8,5.8,97,0.00,CLR,,0.37,0.0,WeatherDisplay:10.37,2013-02-25 02:17:00,
2013-02-25 03:22:00,43.0,42.2,29.97,ESE,112,8.5,8.5,97,0.00,CLR,,0.37,0.0,WeatherDisplay:10.37,2013-02-25 02:22:00,
2013-02-25 03:27:00,43.0,42.2,29.97,SSW,202,6.9,6.9,97,0.00,CLR,,0.37,0.0,WeatherDisplay:10.37,2013-02-25 02:27:00,
2013-02-25 03:32:00,43.0,42.2,29.97,ESE,112,4.0,4.0,97,0.00,CLR,,0.37,0.0,WeatherDisplay:10.37,2013-02-25 02:32:00,
2013-02-25 03:37:00,43.0,42.2,29.97,ESE,112,5.8,5.8,97,0.00,CLR,,0.37,0.0,WeatherDisplay:10.37,2013-02-25 02:37:00,
2013-02-25 03:42:00,43.0,42.2,29.97,WNW,292,4.6,4.6,97,0.00,CLR,,0.37,0.0,WeatherDisplay:10.37,2013-02-25 02:42:00,
2013-02-25 03:47:00,43.0,42.2,29.97,NNW,338,6.9,6.9,97,0.00,CLR,,0.37,0.0,WeatherDisplay:10.37,2013-02-25 02:47:00,
2013-02-25 03:52:00,43.0,42.2,29.97,ESE,112,6.4,6.4,97,0.00,CLR,,0.37,0.0,WeatherDisplay:10.37,2013-02-25 02:52:00,
2013-02-25 03:57:00,43.0,42.2,29.97,NNE,22,5.8,5.8,97,0.00,CLR,,0.37,0.0,WeatherDisplay:10.37,2013-02-25 02:57:00,
2013-02-25 04:02:00,43.0,42.2,29.97,SE,135,5.9,5.9,97,0.00,CLR,,0.37,0.0,WeatherDisplay:10.37,2013-02-25 03:02:00,
2013-02-25 04:07:00,43.0,42.2,29.97,ESE,112,6.9,6.9,97,0.00,CLR,,0.37,0.0,WeatherDisplay:10.37,2013-02-25 03:07:00,
2013-02-25 04:12:00,43.0,42.2,29.97,ENE,68,4.6,4.6,97,0.00,CLR,,0.37,0.0,WeatherDisplay:10.37,2013-02-25 03:12:00,
2013-02-25 04:17:00,42.8,42.0,29.97,WSW,248,4.6,4.6,97,0.00,CLR,,0.37,0.0,WeatherDisplay:10.37,2013-02-25 03:17:00,
2013-02-25 04:22:00,42.8,42.0,29.94,WSW,248,5.8,5.8,97,0.00,CLR,,0.37,0.0,WeatherDisplay:10.37,2013-02-25 03:22:00,
2013-02-25 04:27:00,42.8,41.7,29.94,NE,45,4.6,4.6,96,0.00,CLR,,0.37,0.0,WeatherDisplay:10.37,2013-02-25 03:27:00,
2013-02-25 04:32:00,43.0,42.2,29.94,SSW,202,4.6,4.7,97,0.00,CLR,,0.37,0.0,WeatherDisplay:10.37,2013-02-25 03:32:00,
2013-02-25 04:37:00,42.8,42.0,29.94,ENE,68,3.5,3.5,97,0.00,CLR,,0.37,0.0,WeatherDisplay:10.37,2013-02-25 03:37:00,
2013-02-25 04:42:00,42.8,42.0,29.94,SSW,202,5.8,5.8,97,0.00,CLR,,0.37,0.0,WeatherDisplay:10.37,2013-02-25 03:42:00,
2013-02-25 04:47:00,42.8,42.0,29.94,ESE,112,5.8,5.8,97,0.00,CLR,,0.37,0.0,WeatherDisplay:10.37,2013-02-25 03:47:00,
2013-02-25 04:52:00,43.0,42.2,30.00,WNW,292,5.8,5.8,97,0.00,CLR,,0.37,0.0,WeatherDisplay:10.37,2013-02-25 03:52:00,
2013-02-25 04:57:00,43.0,42.2,30.00,WNW,292,8.1,8.1,97,0.00,CLR,,0.37,0.0,WeatherDisplay:10.37,2013-02-25 03:57:00,
2013-02-25 05:02:00,43.0,41.9,30.00,East,90,5.8,5.8,96,0.00,CLR,,0.37,0.0,WeatherDisplay:10.37,2013-02-25 04:02:00,
2013-02-25 05:07:00,43.0,41.9,29.97,East,90,4.9,4.9,96,0.00,CLR,,0.37,0.0,WeatherDisplay:10.37,2013-02-25 04:07:00,
2013-02-25 05:12:00,43.0,41.9,29.97,South,180,6.9,6.9,96,0.00,CLR,,0.37,0.0,WeatherDisplay:10.37,2013-02-25 04:12:00,
2013-02-25 05:18:00,43.0,41.9,29.97,ESE,112,5.8,5.8,96,0.00,CLR,,0.37,0.0,WeatherDisplay:10.37,2013-02-25 04:18:00,
2013-02-25 05:23:00,43.0,41.9,29.94,SSE,158,3.5,3.5,96,0.00,CLR,,0.37,0.0,WeatherDisplay:10.37,2013-02-25 04:23:00,
2013-02-25 05:28:00,43.0,41.9,29.94,SSE,158,4.9,4.9,96,0.00,CLR,,0.37,0.0,WeatherDisplay:10.37,2013-02-25 04:28:00,
2013-02-25 05:33:00,42.8,41.7,29.94,ESE,112,3.6,3.6,96,0.00,CLR,,0.37,0.0,WeatherDisplay:10.37,2013-02-25 04:33:00,
2013-02-25 05:38:00,43.0,41.9,29.97,ESE,112,8.1,8.1,96,0.00,CLR,,0.37,0.0,WeatherDisplay:10.37,2013-02-25 04:38:00,
2013-02-25 05:43:00,43.0,41.9,29.97,SSE,158,6.9,6.9,96,0.00,CLR,,0.37,0.0,WeatherDisplay:10.37,2013-02-25 04:43:00,
2013-02-25 05:48:00,42.8,41.5,29.97,ESE,112,3.5,3.5,95,0.00,CLR,,0.37,0.0,WeatherDisplay:10.37,2013-02-25 04:48:00,
2013-02-25 05:53:00,42.8,41.5,30.00,South,180,5.8,5.8,95,0.00,CLR,,0.37,0.0,WeatherDisplay:10.37,2013-02-25 04:53:00,
2013-02-25 05:58:00,42.8,41.5,30.00,SSW,202,5.8,5.8,95,0.00,CLR,,0.37,0.0,WeatherDisplay:10.37,2013-02-25 04:58:00,
2013-02-25 06:00:00,42.8,41.5,30.00,SSW,202,5.9,5.9,95,0.00,OVC,,0.37,0.0,WeatherDisplay:10.37,2013-02-25 05:00:00,
2013-02-25 06:05:00,42.8,41.5,30.00,SSW,202,5.8,5.8,95,0.00,OVC,,0.37,0.0,WeatherDisplay:10.37,2013-02-25 05:05:00,
2013-02-25 06:10:00,42.8,41.5,30.00,WSW,248,5.8,5.8,95,0.00,OVC,,0.37,0.0,WeatherDisplay:10.37,2013-02-25 05:10:00,
2013-02-25 06:15:00,42.6,41.3,30.00,SSW,202,2.3,2.3,95,0.00,OVC,,0.37,0.0,WeatherDisplay:10.37,2013-02-25 05:15:00,
2013-02-25 06:20:00,42.6,41.6,30.00,WSW,248,5.8,5.8,96,0.00,OVC,,0.37,0.0,WeatherDisplay:10.37,2013-02-25 05:20:00,
2013-02-25 06:25:00,42.6,41.6,30.00,ENE,68,3.5,3.5,96,0.00,OVC,,0.37,0.0,WeatherDisplay:10.37,2013-02-25 05:25:00,
2013-02-25 06:30:00,42.6,41.6,30.00,East,90,6.9,6.9,96,0.00,OVC,,0.37,0.0,WeatherDisplay:10.37,2013-02-25 05:30:00,
2013-02-25 06:35:00,42.6,41.6,30.00,ESE,112,6.9,6.9,96,0.00,OVC,,0.37,0.0,WeatherDisplay:10.37,2013-02-25 05:35:00,
2013-02-25 06:40:00,42.6,41.6,30.03,ENE,68,5.8,5.8,96,0.00,OVC,,0.37,0.0,WeatherDisplay:10.37,2013-02-25 05:40:00,
2013-02-25 06:45:00,42.4,41.4,30.03,ESE,112,4.3,4.3,96,0.00,OVC,,0.37,0.0,WeatherDisplay:10.37,2013-02-25 05:45:00,
2013-02-25 06:50:00,42.4,41.4,30.03,East,90,4.6,4.6,96,0.00,OVC,,0.37,0.0,WeatherDisplay:10.37,2013-02-25 05:50:00,
2013-02-25 06:55:00,42.4,41.4,30.03,ESE,112,5.8,5.8,96,0.00,OVC,,0.37,0.0,WeatherDisplay:10.37,2013-02-25 05:55:00,
2013-02-25 07:00:00,42.4,41.4,30.03,WSW,248,3.5,3.5,96,0.00,RA,,0.00,0.0,WeatherDisplay:10.37,2013-02-25 06:00:00,
2013-02-25 07:05:00,42.4,41.4,30.03,South,180,3.1,3.1,96,0.00,RA,,0.00,0.0,WeatherDisplay:10.37,2013-02-25 06:05:00,
2013-02-25 07:10:00,42.3,41.2,30.03,ESE,112,2.9,2.9,96,0.00,OVC,,0.00,0.0,WeatherDisplay:10.37,2013-02-25 06:10:00,
2013-02-25 07:15:00,42.4,41.4,30.03,ESE,112,4.6,4.6,96,0.00,OVC,,0.00,0.0,WeatherDisplay:10.37,2013-02-25 06:15:00,
2013-02-25 07:20:00,42.3,41.2,30.03,NE,45,3.5,3.5,96,0.00,OVC,,0.00,0.0,WeatherDisplay:10.37,2013-02-25 06:20:00,
2013-02-25 07:25:00,42.4,41.4,30.06,ESE,112,5.8,5.8,96,0.00,OVC,,0.00,0.0,WeatherDisplay:10.37,2013-02-25 06:25:00,
2013-02-25 07:30:00,42.4,41.4,30.06,East,90,4.6,4.6,96,0.00,OVC,,0.00,0.0,WeatherDisplay:10.37,2013-02-25 06:30:00,
2013-02-25 07:35:00,42.4,41.4,30.06,ESE,112,6.9,6.9,96,0.00,OVC,,0.00,0.0,WeatherDisplay:10.37,2013-02-25 06:35:00,
2013-02-25 07:40:00,42.4,41.4,30.03,East,90,6.9,6.9,96,0.00,OVC,,0.00,0.0,WeatherDisplay:10.37,2013-02-25 06:40:00,
2013-02-25 07:45:00,42.4,41.1,30.03,WNW,292,1.2,1.4,95,0.00,OVC,,0.00,0.0,WeatherDisplay:10.37,2013-02-25 06:45:00,
2013-02-25 07:50:00,42.4,41.1,30.03,East,90,5.9,5.9,95,0.00,OVC,,0.00,0.0,WeatherDisplay:10.37,2013-02-25 06:50:00,
2013-02-25 07:55:00,42.6,41.3,30.00,East,90,5.9,5.9,95,0.00,OVC,,0.00,0.0,WeatherDisplay:10.37,2013-02-25 06:55:00,
2013-02-25 08:00:00,42.6,41.3,30.00,East,90,5.9,5.9,95,0.00,OVC,,0.00,0.0,WeatherDisplay:10.37,2013-02-25 07:00:00,
2013-02-25 08:05:00,42.6,41.3,30.00,East,90,5.9,5.9,95,0.00,OVC,,0.00,0.0,WeatherDisplay:10.37,2013-02-25 07:05:00,
2013-02-25 08:10:00,42.6,41.3,30.00,East,90,6.4,6.4,95,0.00,OVC,,0.00,0.0,WeatherDisplay:10.37,2013-02-25 07:10:00,
2013-02-25 08:15:00,42.8,41.5,30.00,ESE,112,5.8,5.8,95,0.00,OVC,,0.00,0.0,WeatherDisplay:10.37,2013-02-25 07:15:00,
2013-02-25 08:20:00,42.8,41.5,30.00,ESE,112,5.8,5.8,95,0.00,OVC,,0.00,0.0,WeatherDisplay:10.37,2013-02-25 07:20:00,
2013-02-25 08:25:00,43.0,41.6,30.03,ESE,112,4.6,4.7,95,0.00,OVC,,0.00,0.0,WeatherDisplay:10.37,2013-02-25 07:25:00,
2013-02-25 08:30:00,43.0,41.6,30.03,SE,135,5.9,5.9,95,0.00,OVC,,0.00,0.0,WeatherDisplay:10.37,2013-02-25 07:30:00,
2013-02-25 08:35:00,43.2,41.6,30.03,SE,135,2.0,2.0,94,0.00,OVC,,0.00,0.0,WeatherDisplay:10.37,2013-02-25 07:35:00,
2013-02-25 08:40:00,43.0,41.4,30.03,ESE,112,4.6,4.6,94,0.00,OVC,,0.00,0.0,WeatherDisplay:10.37,2013-02-25 07:40:00,
2013-02-25 08:45:00,43.0,41.4,30.03,ESE,112,1.2,3.1,94,0.00,OVC,,0.00,0.0,WeatherDisplay:10.37,2013-02-25 07:45:00,
2013-02-25 08:50:00,43.0,41.4,30.03,SE,135,4.6,5.4,94,0.00,OVC,,0.00,0.0,WeatherDisplay:10.37,2013-02-25 07:50:00,
2013-02-25 08:55:00,43.0,41.4,30.03,SE,135,4.6,5.4,94,0.00,OVC,,0.00,0.0,WeatherDisplay:10.37,2013-02-25 07:55:00,
2013-02-25 09:00:00,43.2,41.6,30.03,SE,135,4.6,5.4,94,0.00,OVC,,0.00,0.0,WeatherDisplay:10.37,2013-02-25 08:00:00,
2013-02-25 09:05:00,43.2,41.6,30.03,SE,135,4.6,5.4,94,0.00,OVC,,0.00,0.0,WeatherDisplay:10.37,2013-02-25 08:05:00,
2013-02-25 09:10:00,43.3,41.7,30.06,SW,225,4.6,4.6,94,0.00,OVC,,0.00,0.0,WeatherDisplay:10.37,2013-02-25 08:10:00,
2013-02-25 09:15:00,43.3,41.7,30.06,WNW,292,3.5,3.5,94,0.00,OVC,,0.00,0.0,WeatherDisplay:10.37,2013-02-25 08:15:00,
2013-02-25 09:20:00,43.5,41.9,30.06,West,270,1.2,1.2,94,0.00,OVC,,0.00,0.0,WeatherDisplay:10.37,2013-02-25 08:20:00,
2013-02-25 09:25:00,43.5,41.6,30.06,SE,135,4.6,4.6,93,0.00,OVC,,0.00,0.0,WeatherDisplay:10.37,2013-02-25 08:25:00,
2013-02-25 09:30:00,43.7,41.8,30.06,WSW,248,5.8,5.8,93,0.00,OVC,,0.00,0.0,WeatherDisplay:10.37,2013-02-25 08:30:00,
2013-02-25 09:35:00,43.9,42.0,30.06,WSW,248,3.5,3.5,93,0.00,OVC,,0.00,0.0,WeatherDisplay:10.37,2013-02-25 08:35:00,
2013-02-25 09:40:00,44.1,42.2,30.06,SSW,202,2.3,2.4,93,0.00,OVC,,0.00,0.0,WeatherDisplay:10.37,2013-02-25 08:40:00,
2013-02-25 09:45:00,44.4,42.5,30.06,SSW,202,3.5,3.5,93,0.00,OVC,,0.00,0.0,WeatherDisplay:10.37,2013-02-25 08:45:00,
2013-02-25 09:50:00,44.8,42.6,30.06,North,0,2.3,2.3,92,0.00,OVC,,0.00,0.0,WeatherDisplay:10.37,2013-02-25 08:50:00,
2013-02-25 09:55:00,45.0,42.8,30.06,WSW,248,1.2,2.0,92,0.00,OVC,,0.00,0.0,WeatherDisplay:10.37,2013-02-25 08:55:00,
2013-02-25 10:00:00,45.0,42.5,30.06,WSW,248,4.6,4.6,91,0.00,OVC,,0.00,0.0,WeatherDisplay:10.37,2013-02-25 09:00:00,
2013-02-25 10:05:00,45.0,42.5,30.06,SW,225,2.3,2.3,91,0.00,OVC,,0.00,0.0,WeatherDisplay:10.37,2013-02-25 09:05:00,
2013-02-25 10:10:00,45.0,42.5,30.06,SW,225,3.5,3.5,91,0.00,OVC,,0.00,0.0,WeatherDisplay:10.37,2013-02-25 09:10:00,
2013-02-25 10:15:00,44.8,42.0,30.06,NNW,338,2.3,2.4,90,0.00,OVC,,0.00,0.0,WeatherDisplay:10.37,2013-02-25 09:15:00,
2013-02-25 10:20:00,44.8,42.0,30.06,NNE,22,3.1,3.1,90,0.00,OVC,,0.00,0.0,WeatherDisplay:10.37,2013-02-25 09:20:00,
2013-02-25 10:25:00,44.6,42.1,30.09,NNE,22,3.5,3.5,91,0.00,OVC,,0.00,0.0,WeatherDisplay:10.37,2013-02-25 09:25:00,
2013-02-25 10:30:00,44.6,42.1,30.09,ESE,112,1.6,2.9,91,0.00,OVC,,0.00,0.0,WeatherDisplay:10.37,2013-02-25 09:30:00,
2013-02-25 10:35:00,44.6,42.1,30.09,SE,135,1.6,2.2,91,0.00,OVC,,0.00,0.0,WeatherDisplay:10.37,2013-02-25 09:35:00,
2013-02-25 10:40:00,44.6,42.1,30.09,SE,135,1.6,2.2,91,0.00,OVC,,0.00,0.0,WeatherDisplay:10.37,2013-02-25 09:40:00,
2013-02-25 10:45:00,44.8,42.3,30.09,WNW,292,5.8,5.8,91,0.00,OVC,,0.00,0.0,WeatherDisplay:10.37,2013-02-25 09:45:00,
2013-02-25 10:50:00,45.1,42.7,30.09,WSW,248,2.4,3.6,91,0.00,OVC,,0.00,0.0,WeatherDisplay:10.37,2013-02-25 09:50:00,
2013-02-25 10:55:00,45.5,43.0,30.09,WSW,248,2.4,3.6,91,0.00,OVC,,0.00,0.0,WeatherDisplay:10.37,2013-02-25 09:55:00,
2013-02-25 11:00:00,45.7,42.9,30.09,SE,135,8.1,8.1,90,0.00,OVC,,0.00,0.0,WeatherDisplay:10.37,2013-02-25 10:00:00,
2013-02-25 11:05:00,45.7,42.9,30.09,SE,135,8.1,8.1,90,0.00,OVC,,0.00,0.0,WeatherDisplay:10.37,2013-02-25 10:05:00,
2013-02-25 11:10:00,45.9,43.1,30.12,ENE,68,4.6,4.6,90,0.00,OVC,,0.00,0.0,WeatherDisplay:10.37,2013-02-25 10:10:00,
2013-02-25 11:15:00,45.9,42.8,30.12,ENE,68,4.6,4.6,89,0.00,OVC,,0.00,0.0,WeatherDisplay:10.37,2013-02-25 10:15:00,
2013-02-25 11:20:00,46.0,43.0,30.12,ENE,68,4.6,4.6,89,0.00,OVC,,0.00,0.0,WeatherDisplay:10.37,2013-02-25 10:20:00,
2013-02-25 11:25:00,46.0,42.7,30.12,ESE,112,5.6,5.6,88,0.00,OVC,,0.00,0.0,WeatherDisplay:10.37,2013-02-25 10:25:00,
2013-02-25 11:30:00,46.2,42.6,30.12,North,0,3.5,4.5,87,0.00,OVC,,0.00,0.0,WeatherDisplay:10.37,2013-02-25 10:30:00,
2013-02-25 11:35:00,46.2,42.6,30.12,North,0,3.5,4.5,87,0.00,OVC,,0.00,0.0,WeatherDisplay:10.37,2013-02-25 10:35:00,
2013-02-25 11:40:00,46.4,43.0,30.12,ESE,112,6.4,6.7,88,0.00,OVC,,0.00,0.0,WeatherDisplay:10.37,2013-02-25 10:40:00,
2013-02-25 11:45:00,46.2,42.6,30.12,ESE,112,6.9,6.9,87,0.00,OVC,,0.00,0.0,WeatherDisplay:10.37,2013-02-25 10:45:00,
2013-02-25 11:50:00,46.2,42.6,30.12,ESE,112,8.7,8.7,87,0.00,OVC,,0.00,0.0,WeatherDisplay:10.37,2013-02-25 10:50:00,
2013-02-25 11:55:00,46.4,42.7,30.09,ENE,68,5.8,5.8,87,0.00,OVC,,0.00,0.0,WeatherDisplay:10.37,2013-02-25 10:55:00,
2013-02-25 12:00:00,46.6,42.9,30.09,ESE,112,5.8,5.8,87,0.00,OVC,,0.00,0.0,WeatherDisplay:10.37,2013-02-25 11:00:00,
2013-02-25 12:05:00,46.6,42.9,30.09,ESE,112,7.4,7.4,87,0.00,OVC,,0.00,0.0,WeatherDisplay:10.37,2013-02-25 11:05:00,
2013-02-25 12:10:00,46.8,43.1,30.06,NNE,22,2.6,3.8,87,0.00,OVC,,0.00,0.0,WeatherDisplay:10.37,2013-02-25 11:10:00,
2013-02-25 12:15:00,46.8,42.8,30.06,East,90,7.4,7.4,86,0.00,OVC,,0.00,0.0,WeatherDisplay:10.37,2013-02-25 11:15:00,
2013-02-25 12:20:00,46.6,42.6,30.06,ESE,112,5.8,5.8,86,0.00,OVC,,0.00,0.0,WeatherDisplay:10.37,2013-02-25 11:20:00,
2013-02-25 12:25:00,46.6,42.6,30.06,NNE,22,3.8,3.8,86,0.00,OVC,,0.00,0.0,WeatherDisplay:10.37,2013-02-25 11:25:00,
2013-02-25 12:30:00,46.6,42.6,30.06,ESE,112,8.1,8.1,86,0.00,OVC,,0.00,0.0,WeatherDisplay:10.37,2013-02-25 11:30:00,
2013-02-25 12:35:00,46.4,42.1,30.06,ESE,112,8.1,8.1,85,0.00,OVC,,0.00,0.0,WeatherDisplay:10.37,2013-02-25 11:35:00,
2013-02-25 12:40:00,46.6,42.3,30.06,ESE,112,6.9,6.9,85,0.00,OVC,,0.00,0.0,WeatherDisplay:10.37,2013-02-25 11:40:00,
2013-02-25 12:45:00,46.6,42.3,30.06,ESE,112,8.1,8.1,85,0.00,OVC,,0.00,0.0,WeatherDisplay:10.37,2013-02-25 11:45:00,
2013-02-25 12:50:00,46.4,42.1,30.06,South,180,6.9,6.9,85,0.00,OVC,,0.00,0.0,WeatherDisplay:10.37,2013-02-25 11:50:00,
2013-02-25 12:55:00,46.6,42.3,30.09,ENE,68,3.6,4.7,85,0.00,OVC,,0.00,0.0,WeatherDisplay:10.37,2013-02-25 11:55:00,
2013-02-25 13:00:00,46.8,42.5,30.09,ESE,112,3.6,4.0,85,0.00,OVC,,0.00,0.0,WeatherDisplay:10.37,2013-02-25 12:00:00,
2013-02-25 13:05:00,46.9,42.7,30.09,East,90,3.8,6.2,85,0.00,OVC,,0.00,0.0,WeatherDisplay:10.37,2013-02-25 12:05:00,
2013-02-25 13:10:00,46.9,42.7,30.09,ESE,112,10.4,10.4,85,0.00,OVC,,0.00,0.0,WeatherDisplay:10.37,2013-02-25 12:10:00,
2013-02-25 13:15:00,47.1,42.8,30.09,ESE,112,4.9,4.9,85,0.00,OVC,,0.00,0.0,WeatherDisplay:10.37,2013-02-25 12:15:00,
2013-02-25 13:20:00,47.1,42.5,30.09,SE,135,8.1,8.5,84,0.00,OVC,,0.00,0.0,WeatherDisplay:10.37,2013-02-25 12:20:00,
2013-02-25 13:25:00,47.1,42.5,30.12,NNE,22,5.8,5.8,84,0.00,OVC,,0.00,0.0,WeatherDisplay:10.37,2013-02-25 12:25:00,
2013-02-25 13:30:00,47.1,42.5,30.12,ENE,68,9.2,9.2,84,0.00,OVC,,0.00,0.0,WeatherDisplay:10.37,2013-02-25 12:30:00,
2013-02-25 13:35:00,47.1,42.5,30.12,ESE,112,8.5,8.5,84,0.00,OVC,,0.00,0.0,WeatherDisplay:10.37,2013-02-25 12:35:00,
2013-02-25 13:40:00,47.1,42.5,30.06,ESE,112,8.1,8.1,84,0.00,OVC,,0.00,0.0,WeatherDisplay:10.37,2013-02-25 12:40:00,
2013-02-25 13:45:00,47.1,42.5,30.06,ENE,68,9.2,9.2,84,0.00,OVC,,0.00,0.0,WeatherDisplay:10.37,2013-02-25 12:45:00,
2013-02-25 13:51:00,47.3,42.7,30.06,WNW,292,5.8,5.8,84,0.00,OVC,,0.00,0.0,WeatherDisplay:10.37,2013-02-25 12:51:00,
2013-02-25 13:56:00,47.3,42.7,30.06,WNW,292,2.3,3.3,84,0.00,OVC,,0.00,0.0,WeatherDisplay:10.37,2013-02-25 12:56:00,
2013-02-25 14:01:00,47.5,42.9,30.06,WSW,248,3.5,3.8,84,0.00,OVC,,0.00,0.0,WeatherDisplay:10.37,2013-02-25 13:01:00,
2013-02-25 14:06:00,47.5,42.9,30.12,ENE,68,4.3,4.3,84,0.00,OVC,,0.00,0.0,WeatherDisplay:10.37,2013-02-25 13:06:00,
2013-02-25 14:11:00,47.5,42.9,30.12,SW,225,2.9,2.9,84,0.00,OVC,,0.00,0.0,WeatherDisplay:10.37,2013-02-25 13:11:00,
2013-02-25 14:16:00,47.5,42.9,30.12,NNW,338,1.4,2.6,84,0.00,OVC,,0.00,0.0,WeatherDisplay:10.37,2013-02-25 13:16:00,
2013-02-25 14:21:00,47.5,42.9,30.06,WSW,248,1.2,2.6,84,0.00,OVC,,0.00,0.0,WeatherDisplay:10.37,2013-02-25 13:21:00,
2013-02-25 14:26:00,47.5,42.9,30.06,WNW,292,2.3,4.3,84,0.00,OVC,,0.00,0.0,WeatherDisplay:10.37,2013-02-25 13:26:00,
2013-02-25 14:31:00,47.7,43.1,30.06,NNW,338,0.0,1.2,84,0.00,OVC,,0.00,0.0,WeatherDisplay:10.37,2013-02-25 13:31:00,
2013-02-25 14:36:00,47.7,43.1,30.06,ESE,112,7.1,7.1,84,0.00,OVC,,0.00,0.0,WeatherDisplay:10.37,2013-02-25 13:36:00,
2013-02-25 14:41:00,47.7,43.1,30.06,ESE,112,7.1,7.1,84,0.00,OVC,,0.00,0.0,WeatherDisplay:10.37,2013-02-25 13:41:00,
2013-02-25 14:46:00,47.8,43.2,30.06,ENE,68,4.6,4.6,84,0.00,OVC,,0.00,0.0,WeatherDisplay:10.37,2013-02-25 13:46:00,
2013-02-25 14:51:00,47.8,43.2,30.06,ENE,68,4.6,4.6,84,0.00,OVC,,0.00,0.0,WeatherDisplay:10.37,2013-02-25 13:51:00,
2013-02-25 14:56:00,48.0,43.4,30.06,WNW,292,4.6,4.6,84,0.00,OVC,,0.00,0.0,WeatherDisplay:10.37,2013-02-25 13:56:00,
2013-02-25 15:01:00,48.2,43.6,30.06,WNW,292,0.0,1.4,84,0.00,OVC,,0.00,0.0,WeatherDisplay:10.37,2013-02-25 14:01:00,
2013-02-25 15:06:00,48.2,43.3,30.09,WNW,292,0.0,1.4,83,0.00,OVC,,0.00,0.0,WeatherDisplay:10.37,2013-02-25 14:06:00,
2013-02-25 15:12:00,48.2,43.6,30.09,WNW,292,2.4,2.9,84,0.00,OVC,,0.00,0.0,WeatherDisplay:10.37,2013-02-25 14:12:00,
2013-02-25 15:17:00,48.2,43.6,30.09,East,90,4.9,4.9,84,0.00,OVC,,0.00,0.0,WeatherDisplay:10.37,2013-02-25 14:17:00,
2013-02-25 15:22:00,48.0,43.7,30.06,ESE,112,2.3,2.3,85,0.00,OVC,,0.00,0.0,WeatherDisplay:10.37,2013-02-25 14:22:00,
2013-02-25 15:27:00,48.0,43.7,30.06,NE,45,3.5,4.5,85,0.00,OVC,,0.00,0.0,WeatherDisplay:10.37,2013-02-25 14:27:00,
2013-02-25 15:32:00,48.0,44.0,30.06,East,90,4.6,4.6,86,0.00,OVC,,0.00,0.0,WeatherDisplay:10.37,2013-02-25 14:32:00,
2013-02-25 15:37:00,48.2,43.9,30.06,NE,45,2.3,3.3,85,0.00,OVC,,0.00,0.0,WeatherDisplay:10.37,2013-02-25 14:37:00,
2013-02-25 15:42:00,48.2,44.2,30.06,ENE,68,4.6,4.6,86,0.00,OVC,,0.00,0.0,WeatherDisplay:10.37,2013-02-25 14:42:00,
2013-02-25 15:47:00,48.2,44.2,30.06,WSW,248,3.5,3.5,86,0.00,OVC,,0.00,0.0,WeatherDisplay:10.37,2013-02-25 14:47:00,
2013-02-25 15:52:00,48.2,44.2,30.09,SSE,158,3.5,3.5,86,0.00,OVC,,0.00,0.0,WeatherDisplay:10.37,2013-02-25 14:52:00,
2013-02-25 15:57:00,48.4,44.4,30.09,WNW,292,0.0,0.0,86,0.00,OVC,,0.00,0.0,WeatherDisplay:10.37,2013-02-25 14:57:00,
2013-02-25 16:02:00,48.4,44.4,30.09,ESE,112,4.6,4.6,86,0.00,OVC,,0.00,0.0,WeatherDisplay:10.37,2013-02-25 15:02:00,
2013-02-25 16:07:00,48.4,44.4,30.09,ESE,112,4.6,4.6,86,0.00,OVC,,0.00,0.0,WeatherDisplay:10.37,2013-02-25 15:07:00,
2013-02-25 16:12:00,48.4,44.4,30.09,NNW,338,1.2,1.6,86,0.00,OVC,,0.00,0.0,WeatherDisplay:10.37,2013-02-25 15:12:00,
2013-02-25 16:17:00,48.4,44.4,30.09,WNW,292,3.5,3.5,86,0.00,OVC,,0.00,0.0,WeatherDisplay:10.37,2013-02-25 15:17:00,
2013-02-25 16:22:00,48.4,44.4,30.06,ESE,112,4.6,4.6,86,0.00,OVC,,0.00,0.0,WeatherDisplay:10.37,2013-02-25 15:22:00,
2013-02-25 16:27:00,48.4,44.4,30.06,NE,45,2.3,2.3,86,0.00,OVC,,0.00,0.0,WeatherDisplay:10.37,2013-02-25 15:27:00,
2013-02-25 16:32:00,48.2,44.2,30.06,East,90,3.6,3.6,86,0.00,OVC,,0.00,0.0,WeatherDisplay:10.37,2013-02-25 15:32:00,
2013-02-25 16:37:00,48.2,44.2,30.09,WSW,248,2.3,2.3,86,0.00,OVC,,0.00,0.0,WeatherDisplay:10.37,2013-02-25 15:37:00,
2013-02-25 16:42:00,48.2,44.2,30.09,NE,45,2.3,2.3,86,0.00,OVC,,0.00,0.0,WeatherDisplay:10.37,2013-02-25 15:42:00,
2013-02-25 16:47:00,48.2,44.2,30.09,ENE,68,2.3,2.3,86,0.00,OVC,,0.00,0.0,WeatherDisplay:10.37,2013-02-25 15:47:00,
2013-02-25 16:52:00,48.0,44.3,30.06,NNW,338,2.4,0.0,87,0.00,OVC,,0.00,0.0,WeatherDisplay:10.37,2013-02-25 15:52:00,
2013-02-25 16:57:00,48.0,44.3,30.06,ENE,68,1.2,1.6,87,0.00,OVC,,0.00,0.0,WeatherDisplay:10.37,2013-02-25 15:57:00,
2013-02-25 17:02:00,48.0,44.3,30.06,NE,45,3.3,3.3,87,0.00,OVC,,0.00,0.0,WeatherDisplay:10.37,2013-02-25 16:02:00,
2013-02-25 17:07:00,48.0,44.6,30.09,ENE,68,3.8,3.8,88,0.00,OVC,,0.00,0.0,WeatherDisplay:10.37,2013-02-25 16:07:00,
2013-02-25 17:12:00,47.8,44.5,30.09,East,90,2.3,2.9,88,0.00,OVC,,0.00,0.0,WeatherDisplay:10.37,2013-02-25 16:12:00,
2013-02-25 17:17:00,47.8,44.5,30.09,West,270,1.2,1.4,88,0.00,OVC,,0.00,0.0,WeatherDisplay:10.37,2013-02-25 16:17:00,
2013-02-25 17:22:00,47.8,44.5,30.12,West,270,1.2,1.4,88,0.00,OVC,,0.00,0.0,WeatherDisplay:10.37,2013-02-25 16:22:00,
2013-02-25 17:27:00,47.8,44.5,30.12,NE,45,2.3,2.3,88,0.00,OVC,,0.00,0.0,WeatherDisplay:10.37,2013-02-25 16:27:00,
2013-02-25 17:32:00,47.7,44.6,30.12,ENE,68,1.4,0.0,89,0.00,OVC,,0.00,0.0,WeatherDisplay:10.37,2013-02-25 16:32:00,
2013-02-25 17:37:00,47.7,44.6,30.09,ENE,68,2.4,2.4,89,0.00,OVC,,0.00,0.0,WeatherDisplay:10.37,2013-02-25 16:37:00,
2013-02-25 17:42:00,47.7,44.6,30.09,East,90,2.4,2.4,89,0.00,OVC,,0.00,0.0,WeatherDisplay:10.37,2013-02-25 16:42:00,
2013-02-25 17:47:00,47.7,44.6,30.09,NNE,22,2.3,2.3,89,0.00,OVC,,0.00,0.0,WeatherDisplay:10.37,2013-02-25 16:47:00,
2013-02-25 17:52:00,47.5,44.4,30.09,NE,45,3.5,3.5,89,0.00,CLR,,0.00,0.0,WeatherDisplay:10.37,2013-02-25 16:52:00,
2013-02-25 17:57:00,47.5,44.4,30.09,ENE,68,3.6,3.6,89,0.00,CLR,,0.00,0.0,WeatherDisplay:10.37,2013-02-25 16:57:00,
2013-02-25 18:02:00,47.3,44.5,30.09,WNW,292,2.3,2.3,90,0.00,CLR,,0.00,0.0,WeatherDisplay:10.37,2013-02-25 17:02:00,
2013-02-25 18:07:00,47.3,44.5,30.12,ENE,68,2.3,2.3,90,0.00,CLR,,0.00,0.0,WeatherDisplay:10.37,2013-02-25 17:07:00,
2013-02-25 18:12:00,47.1,44.6,30.12,NNE,22,2.6,2.6,91,0.00,CLR,,0.00,0.0,WeatherDisplay:10.37,2013-02-25 17:12:00,
2013-02-25 18:17:00,47.1,44.6,30.12,NNE,22,2.3,2.3,91,0.00,CLR,,0.00,0.0,WeatherDisplay:10.37,2013-02-25 17:17:00,
2013-02-25 18:22:00,47.1,44.6,30.15,NNW,338,2.9,2.9,91,0.00,CLR,,0.00,0.0,WeatherDisplay:10.37,2013-02-25 17:22:00,
2013-02-25 18:27:00,47.1,44.9,30.15,NNE,22,2.4,2.4,92,0.00,CLR,,0.00,0.0,WeatherDisplay:10.37,2013-02-25 17:27:00,
2013-02-25 18:32:00,47.1,44.9,30.15,NE,45,3.3,3.3,92,0.00,CLR,,0.00,0.0,WeatherDisplay:10.37,2013-02-25 17:32:00,
2013-02-25 18:37:00,47.3,45.1,30.15,ENE,68,2.4,2.4,92,0.00,CLR,,0.00,0.0,WeatherDisplay:10.37,2013-02-25 17:37:00,
2013-02-25 18:42:00,47.3,45.1,30.15,North,0,4.6,4.6,92,0.00,CLR,,0.00,0.0,WeatherDisplay:10.37,2013-02-25 17:42:00,
2013-02-25 18:47:00,47.5,45.3,30.15,ESE,112,4.6,4.6,92,0.00,CLR,,0.00,0.0,WeatherDisplay:10.37,2013-02-25 17:47:00,
2013-02-25 18:52:00,47.7,45.5,30.09,SSW,202,4.6,4.6,92,0.00,CLR,,0.00,0.0,WeatherDisplay:10.37,2013-02-25 17:52:00,
2013-02-25 18:57:00,47.7,45.7,30.09,ENE,68,4.6,4.6,93,0.00,CLR,,0.00,0.0,WeatherDisplay:10.37,2013-02-25 17:57:00,
2013-02-25 19:02:00,47.7,45.7,30.09,East,90,5.8,5.8,93,0.00,CLR,,0.00,0.0,WeatherDisplay:10.37,2013-02-25 18:02:00,
2013-02-25 19:07:00,47.7,45.7,30.09,NE,45,5.8,5.8,93,0.00,CLR,,0.00,0.0,WeatherDisplay:10.37,2013-02-25 18:07:00,
2013-02-25 19:12:00,47.7,45.7,30.09,ENE,68,4.6,4.6,93,0.00,CLR,,0.00,0.0,WeatherDisplay:10.37,2013-02-25 18:12:00,
2013-02-25 19:17:00,47.7,45.7,30.09,ESE,112,5.9,5.9,93,0.00,CLR,,0.00,0.0,WeatherDisplay:10.37,2013-02-25 18:17:00,
2013-02-25 19:22:00,47.7,45.7,30.12,ENE,68,6.9,6.9,93,0.00,CLR,,0.00,0.0,WeatherDisplay:10.37,2013-02-25 18:22:00,
2013-02-25 19:27:00,47.5,45.6,30.12,SSW,202,5.6,5.6,93,0.00,CLR,,0.00,0.0,WeatherDisplay:10.37,2013-02-25 18:27:00,
2013-02-25 19:32:00,47.3,45.4,30.12,East,90,5.8,5.8,93,0.00,CLR,,0.00,0.0,WeatherDisplay:10.37,2013-02-25 18:32:00,
2013-02-25 19:37:00,47.3,45.4,30.12,East,90,7.6,7.6,93,0.00,CLR,,0.00,0.0,WeatherDisplay:10.37,2013-02-25 18:37:00,
2013-02-25 19:42:00,47.1,44.9,30.12,ENE,68,3.5,3.5,92,0.00,CLR,,0.00,0.0,WeatherDisplay:10.37,2013-02-25 18:42:00,
2013-02-25 19:47:00,47.1,45.2,30.12,ESE,112,4.6,4.6,93,0.00,CLR,,0.00,0.0,WeatherDisplay:10.37,2013-02-25 18:47:00,
2013-02-25 19:52:00,46.9,45.0,30.09,NNE,22,4.6,4.6,93,0.00,CLR,,0.00,0.0,WeatherDisplay:10.37,2013-02-25 18:52:00,
2013-02-25 19:57:00,46.9,45.0,30.09,NNE,22,6.9,6.9,93,0.00,CLR,,0.00,0.0,WeatherDisplay:10.37,2013-02-25 18:57:00,
2013-02-25 20:02:00,46.9,45.0,30.09,NNE,22,5.8,5.8,93,0.00,CLR,,0.00,0.0,WeatherDisplay:10.37,2013-02-25 19:02:00,
2013-02-25 20:07:00,46.9,44.7,30.12,NNE,22,4.6,4.6,92,0.00,CLR,,0.00,0.0,WeatherDisplay:10.37,2013-02-25 19:07:00,
2013-02-25 20:12:00,46.9,44.7,30.12,ENE,68,4.6,4.6,92,0.00,CLR,,0.00,0.0,WeatherDisplay:10.37,2013-02-25 19:12:00,
2013-02-25 20:17:00,46.9,44.7,30.12,NNW,338,3.5,3.5,92,0.00,CLR,,0.00,0.0,WeatherDisplay:10.37,2013-02-25 19:17:00,
2013-02-25 20:22:00,46.8,44.6,30.12,North,0,3.8,3.8,92,0.00,CLR,,0.00,0.0,WeatherDisplay:10.37,2013-02-25 19:22:00,
2013-02-25 20:27:00,46.8,44.6,30.12,NNE,22,4.6,4.6,92,0.00,CLR,,0.00,0.0,WeatherDisplay:10.37,2013-02-25 19:27:00,
2013-02-25 20:32:00,46.8,44.6,30.12,NNE,22,4.6,4.6,92,0.00,CLR,,0.00,0.0,WeatherDisplay:10.37,2013-02-25 19:32:00,
2013-02-25 20:37:00,46.6,44.4,30.12,NNW,338,4.6,4.6,92,0.00,CLR,,0.00,0.0,WeatherDisplay:10.37,2013-02-25 19:37:00,
2013-02-25 20:42:00,46.2,44.3,30.12,NNE,22,3.5,3.5,93,0.00,CLR,,0.00,0.0,WeatherDisplay:10.37,2013-02-25 19:42:00,
2013-02-25 20:47:00,46.2,44.3,30.12,NW,315,4.6,4.6,93,0.00,CLR,,0.00,0.0,WeatherDisplay:10.37,2013-02-25 19:47:00,
2013-02-25 20:52:00,45.9,44.0,30.12,NNE,22,3.5,3.5,93,0.00,CLR,,0.00,0.0,WeatherDisplay:10.37,2013-02-25 19:52:00,
2013-02-25 20:57:00,45.5,43.9,30.12,North,0,3.8,3.8,94,0.00,CLR,,0.00,0.0,WeatherDisplay:10.37,2013-02-25 19:57:00,
2013-02-25 21:02:00,45.3,43.7,30.12,NNE,22,4.6,4.6,94,0.00,CLR,,0.00,0.0,WeatherDisplay:10.37,2013-02-25 20:02:00,
2013-02-25 21:07:00,45.1,43.5,30.12,NNE,22,6.2,6.2,94,0.00,CLR,,0.00,0.0,WeatherDisplay:10.37,2013-02-25 20:07:00,
2013-02-25 21:12:00,45.0,43.6,30.12,ENE,68,5.8,5.8,95,0.00,CLR,,0.00,0.0,WeatherDisplay:10.37,2013-02-25 20:12:00,
2013-02-25 21:17:00,44.8,43.4,30.12,NNE,22,4.6,4.6,95,0.00,CLR,,0.00,0.0,WeatherDisplay:10.37,2013-02-25 20:17:00,
2013-02-25 21:22:00,44.8,43.4,30.06,NNE,22,4.6,4.6,95,0.00,CLR,,0.00,0.0,WeatherDisplay:10.37,2013-02-25 20:22:00,
2013-02-25 21:27:00,44.6,43.3,30.06,NNE,22,4.6,4.6,95,0.00,CLR,,0.00,0.0,WeatherDisplay:10.37,2013-02-25 20:27:00,
2013-02-25 21:32:00,44.6,43.3,30.06,NNE,22,5.8,5.8,95,0.00,CLR,,0.00,0.0,WeatherDisplay:10.37,2013-02-25 20:32:00,
2013-02-25 21:37:00,44.6,43.3,30.12,NNW,338,4.6,4.6,95,0.00,CLR,,0.00,0.0,WeatherDisplay:10.37,2013-02-25 20:37:00,
2013-02-25 21:42:00,44.6,43.3,30.12,NNE,22,5.8,5.8,95,0.00,CLR,,0.00,0.0,WeatherDisplay:10.37,2013-02-25 20:42:00,
2013-02-25 21:47:00,44.4,43.1,30.12,NNW,338,4.6,4.6,95,0.00,CLR,,0.00,0.0,WeatherDisplay:10.37,2013-02-25 20:47:00,
2013-02-25 21:52:00,44.4,43.1,30.09,NNE,22,5.8,5.8,95,0.00,CLR,,0.00,0.0,WeatherDisplay:10.37,2013-02-25 20:52:00,
2013-02-25 21:57:00,44.4,43.1,30.09,North,0,6.2,6.2,95,0.00,CLR,,0.00,0.0,WeatherDisplay:10.37,2013-02-25 20:57:00,
2013-02-25 22:02:00,44.4,43.1,30.09,ENE,68,6.9,6.9,95,0.00,CLR,,0.00,0.0,WeatherDisplay:10.37,2013-02-25 21:02:00,
2013-02-25 22:07:00,44.4,43.1,30.12,NNW,338,4.6,4.6,95,0.00,CLR,,0.00,0.0,WeatherDisplay:10.37,2013-02-25 21:07:00,
2013-02-25 22:12:00,44.4,43.1,30.12,NNE,22,5.4,5.4,95,0.00,CLR,,0.00,0.0,WeatherDisplay:10.37,2013-02-25 21:12:00,
2013-02-25 22:17:00,44.4,43.1,30.12,NNW,338,3.5,3.5,95,0.00,CLR,,0.00,0.0,WeatherDisplay:10.37,2013-02-25 21:17:00,
2013-02-25 22:22:00,44.4,43.1,30.09,North,0,2.3,2.3,95,0.00,CLR,,0.00,0.0,WeatherDisplay:10.37,2013-02-25 21:22:00,
2013-02-25 22:27:00,44.4,42.8,30.09,NE,45,2.3,2.9,94,0.00,CLR,,0.00,0.0,WeatherDisplay:10.37,2013-02-25 21:27:00,
2013-02-25 22:32:00,44.4,42.8,30.09,NNW,338,5.8,5.8,94,0.00,CLR,,0.00,0.0,WeatherDisplay:10.37,2013-02-25 21:32:00,
2013-02-25 22:37:00,44.6,43.0,30.09,North,0,3.5,3.5,94,0.00,CLR,,0.00,0.0,WeatherDisplay:10.37,2013-02-25 21:37:00,
2013-02-25 22:42:00,44.6,43.0,30.09,NNE,22,3.5,3.5,94,0.00,CLR,,0.00,0.0,WeatherDisplay:10.37,2013-02-25 21:42:00,
2013-02-25 22:47:00,44.6,43.0,30.09,NNE,22,3.5,3.5,94,0.00,CLR,,0.00,0.0,WeatherDisplay:10.37,2013-02-25 21:47:00,
2013-02-25 22:52:00,44.8,43.2,30.09,NE,45,3.5,3.5,94,0.00,CLR,,0.00,0.0,WeatherDisplay:10.37,2013-02-25 21:52:00,
2013-02-25 22:57:00,44.8,43.2,30.09,NE,45,4.6,4.6,94,0.00,CLR,,0.00,0.0,WeatherDisplay:10.37,2013-02-25 21:57:00,
2013-02-25 23:02:00,44.8,43.2,30.09,North,0,4.6,4.6,94,0.00,CLR,,0.00,0.0,WeatherDisplay:10.37,2013-02-25 22:02:00,
2013-02-25 23:07:00,44.8,43.2,30.09,NNE,22,4.6,4.6,94,0.00,CLR,,0.00,0.0,WeatherDisplay:10.37,2013-02-25 22:07:00,
2013-02-25 23:12:00,44.8,43.2,30.09,NNE,22,5.8,5.8,94,0.00,CLR,,0.00,0.0,WeatherDisplay:10.37,2013-02-25 22:12:00,
2013-02-25 23:17:00,44.6,43.0,30.09,NNE,22,5.6,5.6,94,0.00,CLR,,0.00,0.0,WeatherDisplay:10.37,2013-02-25 22:17:00,
2013-02-25 23:22:00,44.6,42.7,30.06,ENE,68,3.8,3.8,93,0.00,CLR,,0.00,0.0,WeatherDisplay:10.37,2013-02-25 22:22:00,
2013-02-25 23:27:00,44.6,42.7,30.06,NNE,22,5.4,5.4,93,0.00,CLR,,0.00,0.0,WeatherDisplay:10.37,2013-02-25 22:27:00,
2013-02-25 23:32:00,44.6,42.7,30.06,ENE,68,5.8,5.8,93,0.00,CLR,,0.00,0.0,WeatherDisplay:10.37,2013-02-25 22:32:00,
2013-02-25 23:37:00,44.6,42.7,30.09,NNE,22,2.9,2.9,93,0.00,CLR,,0.00,0.0,WeatherDisplay:10.37,2013-02-25 22:37:00,
2013-02-25 23:42:00,44.8,42.9,30.09,NNE,22,4.6,4.6,93,0.00,CLR,,0.00,0.0,WeatherDisplay:10.37,2013-02-25 22:42:00,
2013-02-25 23:47:00,44.8,42.9,30.09,North,0,4.6,4.6,93,0.00,CLR,,0.00,0.0,WeatherDisplay:10.37,2013-02-25 22:47:00,
2013-02-25 23:52:00,44.8,42.9,30.09,North,0,2.9,2.9,93,0.00,CLR,,0.00,0.0,WeatherDisplay:10.37,2013-02-25 22:52:00,
2013-02-25 23:57:00,44.8,42.9,30.09,NW,315,4.0,4.0,93,0.00,CLR,,0.00,0.0,WeatherDisplay:10.37,2013-02-25 22:57:00,